Location: Newark
(13.6797°N, 8.5297°E)
Time: 05:17:21
(UTC+00:00)

A-11 Canister half - Pass Details

Date: 24 January 2020
Orbit: 1517 x 1683 km, 47.2° (Epoch: 19 February)

Event Time Altitude Azimuth Distance (km) Brightness Sun altitude
Rises 18:27:23 0° 177° (S) 4,870 11.8 -15.9°
Reaches altitude 10° 18:33:32 10° 149° (SSE) 3,846 10.9 -17.4°
Maximum altitude 18:36:53 12° 128° (SE) 3,654 10.6 -18.1°
Enters shadow 18:38:43 11° 116° (ESE) 3,694 10.6 -18.6°
Drops below altitude 10° 18:40:11 10° 107° (ESE) 3,800 - -18.9°
Sets 18:46:04 0° 80° (E) 4,744 - -20.3°
